Погода в Крыму

Россия / Ростовская область     47°18′15″N   39°31′00″E
темп.,
°C
ветер,
м/с
пор.,
м/с
влажн.,
%
обл.,
%
осадки,
мм/ч
давл.,
гПа
погр.,
м
5 августа, чт
чт500:00+23ссв49410 0.0 1015187
03:00+22ссв4843100 0.0 1015137
06:00+23всв3746100 0.0 1015204
09:00+29вюв45355 0.0 1015813
12:00+33вюв332839 0.0 10142488
15:00+36вюв132588 0.0 10123442
18:00+35в222589 0.0 10112881
21:00+28вюв474642 0.1 1011220
6 августа, пт
пт600:00+26вюв4115032 0.0 1011284
03:00+24в37518 0.0 1010142
06:00+25в511446 0.0 1011304
09:00+31вюв8122840 0.0 1010874
12:00+36вюв9102266 0.0 10082053
15:00+38вюв81019100 0.0 10063024
18:00+36в81021100 0.0 10052025
21:00+33в81525100 0.0 1005788
7 августа, сб
сб700:00+30в9182427 0.0 1005732
03:00+29вюв81623100 0.0 1005654
06:00+27в716265 0.0 1005643
09:00+31вюв81126100 0.1 10061036
12:00+31в6932100 0.9 1006777
15:00+36в2620100 1.6 10052349
18:00+37в5618100 0.0 10041766
21:00+31в3426100 0.1 100555
8 августа, вс
вс800:00+23св51163100 1.3 1006139
03:00+24в3465100 2.7 100760
06:00+24ююв1165100 1.1 100822
09:00+26юз2364100 1.3 1009204
12:00+32вюв3340100 0.0 10101314
15:00+35юв3329100 0.0 10092646
18:00+30ююв4636100 0.1 1011478
21:00+24зсз2465100 0.1 1013123
9 августа, пн
пн900:00+23с347065 0.0 101383
03:00+23ссв3548100 0.0 101387
06:00+23с47430 0.0 1013127
09:00+31ссв67240 0.0 10131164
12:00+35ссв56210 0.0 10122145
15:00+37с661827 0.0 10123549
18:00+33св88255 0.0 10121152
21:00+26ссв511405 0.0 1013286